This is the latest recevied weather packets stored in our database for station/object WI5ARD. If no packets are shown the sender has not sent any weather packets the latest 10 day(s).
| Time | Temp. | Humidity | Pressure | Rain* | Wind** | Luminosity | Snow |
|---|---|---|---|---|---|---|---|
| 1777636520 | 16.67° C | 96% | 1014 hPa | 0.25 mm | - | 7 W/m² | - |
| 1777635944 | 16.67° C | 96% | 1013.5 hPa | 0 mm | - | 9 W/m² | - |
| 1777634722 | 17.22° C | 96% | 1013.3 hPa | 0.25 mm | - | 0 W/m² | - |
| 1777634424 | 17.22° C | 96% | 1013.9 hPa | 0.25 mm | - | 0 W/m² | - |
| 1777630536 | 17.22° C | 96% | 1014 hPa | 0.76 mm | - | 0 W/m² | - |
| 1777629681 | 17.22° C | 96% | 1013.8 hPa | 0.51 mm | - | 0 W/m² | - |
| 1777628121 | 17.22° C | 96% | 1013.1 hPa | 0 mm | - | 0 W/m² | - |
| 1777625137 | 17.22° C | 96% | 1011.9 hPa | 0 mm | - | 0 W/m² | - |
| 1777621820 | 17.78° C | 96% | 1013.1 hPa | 0 mm | - | 0 W/m² | - |
| 1777620635 | 17.78° C | 96% | 1013.9 hPa | 0 mm | - | 0 W/m² | - |
| 1777619735 | 17.78° C | 96% | 1014 hPa | 0 mm | - | 0 W/m² | - |
| 1777619119 | 17.78° C | 96% | 1014.1 hPa | 0 mm | - | 0 W/m² | - |
| 1777615239 | 17.78° C | 96% | 1013.8 hPa | 0 mm | - | 0 W/m² | - |
| 1777614022 | 17.78° C | 96% | 1014.3 hPa | 0 mm | - | 0 W/m² | - |
| 1777611020 | 18.89° C | 96% | 1014.9 hPa | 0 mm | - | 0 W/m² | - |
| 1777608038 | 19.44° C | 96% | 1014.4 hPa | 0 mm | - | 0 W/m² | - |
| 1777606819 | 19.44° C | 96% | 1014.6 hPa | 0 mm | - | 0 W/m² | - |
| 1777605339 | 20° C | 96% | 1014.3 hPa | 0 mm | - | 0 W/m² | - |
| 1777603536 | 20.56° C | 96% | 1014 hPa | 0.25 mm | - | 0 W/m² | - |
| 1777602319 | 20.56° C | 96% | 1013.4 hPa | 0.25 mm | - | 0 W/m² | - |
| 1777601419 | 20.56° C | 96% | 1013 hPa | 0 mm | - | 0 W/m² | - |
| 1777600220 | 20.56° C | 95% | 1012.8 hPa | 0 mm | - | 0 W/m² | - |
| 1777599938 | 20.56° C | 96% | 1012.8 hPa | 0 mm | - | 0 W/m² | - |
| 1777599621 | 20.56° C | 96% | 1012.8 hPa | 0 mm | - | 0 W/m² | - |
| 1777598150 | 20.56° C | 95% | 1012.4 hPa | 0.51 mm | - | 0 W/m² | - |
* Rain latest hour (hover to see other rain measurements)
** Current wind speed in m/s (hover to see current wind gust speed)